Emerado, ND

11:19 AM CST on February 26, 2017 (GMT -0600)
Grand Forks International

Weather History for KGFK - April, 2013

Change the Weather History Date:

Friday, April 5, 2013

  Actual Average Record
Temperature  
Mean Temperature 23 °F 36 °F  
Max Temperature 32 °F 47 °F 80 °F (1991)
Min Temperature 14 °F 26 °F 0 °F (1979)
Degree Days  
Heating Degree Days 42 29  
Month to date heating degree days 207 149  
Since 1 July heating degree days 8774 8534  
Cooling Degree Days 0 0  
Month to date cooling degree days 0 0  
Year to date cooling degree days 0 0  
Moisture  
Dew Point 21 °F    
Average Humidity 78    
Maximum Humidity 92    
Minimum Humidity 63    
Precipitation  
Precipitation 0.03 in 0.03 in 0.51 in (1997)
Month to date precipitation 0.03 0.14  
Year to date precipitation 1.80 2.17  
Snow  
Snow 0.30 in 0.10 in 2.00 in (1997)
Month to date snowfall 0.3 0.6  
Since 1 July snowfall 43.8 45.0  
Snow Depth 5.00 in    
Sea Level Pressure  
Sea Level Pressure 30.09 in    
Wind  
Wind Speed 10 mph (ESE)    
Max Wind Speed 21 mph    
Max Gust Speed 24 mph    
Visibility 8 miles    
Events Snow    
T = Trace of Precipitation, MM = Missing Value Source: NWS Daily Summary

Daily Weather History Graph

Daily Weather History Graph

Search for Another Location

Airport or City:

Trip Planner

Search our weather history database for the weather conditions in past years. The results will help you decide how hot, cold, wet, or windy it might be!

Date:

Astronomy

Apr. 05, 2013 Rise Set
Actual Time 6:58 AM CDT 8:05 PM CDT
Civil Twilight 6:26 AM CDT 8:36 PM CDT
Nautical Twilight 5:48 AM CDT 9:15 PM CDT
Astronomical Twilight 5:08 AM CDT 9:55 PM CDT
Moon 4:27 AM CDT (4/5) 3:11 PM CDT (4/5)
Length of Visible Light 14h 10m
Length of Day
13h 06m
Waning Crescent, 23% of the Moon is Illuminated
Apr 5
Waning Crescent
Apr 10
New
Apr 18
First Quarter
Apr 25
Full
May 2
Last Quarter

Hourly Weather History & Observations

Time (CDT) Temp. Windchill Dew Point Humidity Pressure Visibility Wind Dir Wind Speed Gust Speed Precip Events Conditions
12:53 AM 19.9 °F 14.9 °F 16.0 °F 85% 30.29 in 10.0 mi NW 3.5 mph - N/A   Clear
1:53 AM 19.0 °F 11.1 °F 16.0 °F 88% 30.31 in 10.0 mi West 5.8 mph - N/A   Clear
2:53 AM 18.0 °F 12.7 °F 14.0 °F 84% 30.30 in 10.0 mi NNW 3.5 mph - N/A   Clear
3:53 AM 16.0 °F 10.4 °F 12.9 °F 88% 30.29 in 10.0 mi North 3.5 mph - N/A   Clear
4:53 AM 16.0 °F - 10.9 °F 81% 30.28 in 10.0 mi Calm Calm - N/A   Clear
5:53 AM 15.1 °F - 12.0 °F 88% 30.28 in 10.0 mi Calm Calm - N/A   Partly Cloudy
6:53 AM 17.1 °F 11.7 °F 14.0 °F 88% 30.26 in 10.0 mi East 3.5 mph - N/A   Mostly Cloudy
7:53 AM 19.0 °F 9.0 °F 14.0 °F 81% 30.25 in 10.0 mi ESE 8.1 mph - N/A   Overcast
8:53 AM 21.0 °F 11.4 °F 15.1 °F 78% 30.22 in 10.0 mi ESE 8.1 mph - N/A   Overcast
9:53 AM 23.0 °F 11.7 °F 14.0 °F 68% 30.20 in 10.0 mi SE 11.5 mph - N/A   Overcast
10:53 AM 26.1 °F 15.6 °F 17.1 °F 69% 30.17 in 10.0 mi SE 11.5 mph - N/A   Mostly Cloudy
11:53 AM 27.0 °F 16.1 °F 18.0 °F 69% 30.16 in 10.0 mi SSE 12.7 mph - N/A   Overcast
12:53 PM 28.9 °F 18.2 °F 19.9 °F 69% 30.12 in 10.0 mi SSE 13.8 mph - N/A   Overcast
1:53 PM 30.9 °F 21.7 °F 21.0 °F 67% 30.09 in 10.0 mi SE 11.5 mph - N/A   Overcast
2:53 PM 32.0 °F 22.1 °F 21.9 °F 66% 30.05 in 10.0 mi SSE 13.8 mph - N/A   Overcast
3:53 PM 30.9 °F 20.7 °F 25.0 °F 79% 30.03 in 9.0 mi SSE 13.8 mph - 0.00 in Snow Light Snow
4:38 PM 30.2 °F 19.3 °F 26.6 °F 86% 29.97 in 2.5 mi SE 15.0 mph - 0.00 in Snow Light Snow
4:49 PM 30.2 °F 19.8 °F 26.6 °F 86% 29.96 in 4.0 mi SE 13.8 mph - 0.00 in Snow Light Snow
4:53 PM 30.9 °F 20.7 °F 27.0 °F 85% 30.01 in 4.0 mi SE 13.8 mph - 0.01 in Snow Light Snow
5:53 PM 30.9 °F 20.7 °F 27.0 °F 85% 29.99 in 3.0 mi SE 13.8 mph - 0.00 in Snow Light Snow
6:22 PM 30.2 °F 18.9 °F 26.6 °F 86% 29.93 in 2.5 mi SE 16.1 mph - 0.01 in Snow Light Snow
6:53 PM 30.9 °F 20.2 °F 27.0 °F 85% 29.97 in 1.8 mi ESE 15.0 mph - 0.01 in Snow Light Snow
7:16 PM 30.2 °F 18.9 °F 26.6 °F 86% 29.91 in 2.0 mi ESE 16.1 mph - 0.01 in Snow Light Snow
7:53 PM 30.9 °F 19.8 °F 28.0 °F 89% 29.94 in 4.0 mi ESE 16.1 mph - 0.01 in Snow Light Snow
8:53 PM 30.9 °F 19.8 °F 27.0 °F 85% 29.91 in 9.0 mi ESE 16.1 mph - 0.00 in Snow Light Snow
9:53 PM 30.9 °F 21.2 °F 27.0 °F 85% 29.90 in 10.0 mi ESE 12.7 mph - 0.00 in   Overcast
10:53 PM 30.9 °F 22.8 °F 27.0 °F 85% 29.87 in 10.0 mi ESE 9.2 mph - N/A   Overcast
11:53 PM 30.9 °F 23.5 °F 27.0 °F 85% 29.85 in 10.0 mi East 8.1 mph - N/A   Overcast